[[{"header":{"parameterUnit":"m.s-1","parameterCategory":1,"la1":30.2991,"la2":30.254,"lo1":-89.0895,"lo2":-89.0444,"dy":0.0017,"dx":0.0017,"nx":28,"ny":28,"refTime":"2025-03-22T21:00:00:Z","depth":0,"parameterNumber":2,"parameterNumberName":"U-component_of_WINDS"},"data":[0,0,0,0,0,0,0,0,0,0,0,0,0,0,0,0,0,0,0,0,0,0,0,0,0,0,0,0,0,0,0,0,0,0,0,0,0,0,0,0,0,0,0,0,0,0,0,0,0,0,0,0,0,0,0,0,0,0,-1.3557,-1.3558,0,-1.3613,-1.3614,-1.3614,-1.3617,-1.3617,-1.3616,-1.3615,-1.3674,-1.3676,-1.3678,0,0,0,0,0,0,0,0,0,0,0,0,0,-1.3455,-1.3457,-1.3557,-1.3558,-1.3559,-1.3613,-1.3614,-1.3615,-1.3617,-1.3617,-1.3616,-1.3615,-1.3673,-1.3676,-1.3678,0,0,0,0,0,0,0,0,0,0,0,0,0,-1.3504,-1.3457,-1.3557,-1.3567,-1.3568,-1.3613,-1.3614,-1.3615,-1.3618,-1.3617,-1.3616,-1.3615,-1.3672,-1.3675,-1.3679,-1.3718,0,0,-1.3689,-1.369,0,0,0,0,0,0,0,0,-1.3501,-1.3508,-1.3564,-1.3566,-1.3568,-1.3607,-1.3599,-1.365,-1.3618,-1.3599,-1.3615,-1.3614,-1.3653,-1.3657,-1.367,-1.3721,-1.3724,-1.3689,-1.3691,-1.3692,-1.3693,0,0,0,0,0,0,0,-1.3498,-1.3505,-1.3579,-1.3565,-1.3567,-1.3569,-1.3575,-1.3609,-1.3631,-1.36,-1.3601,-1.3607,-1.3653,-1.3667,-1.3671,-1.3724,-1.3689,-1.3692,-1.3694,-1.3695,-1.3812,-1.3813,0,0,0,0,0,0,-1.3492,-1.3502,-1.3578,-1.3581,-1.3531,-1.3571,-1.3578,-1.3595,-1.363,-1.3634,-1.3608,-1.3607,-1.3662,-1.3668,-1.3673,-1.3723,-1.3692,-1.3695,-1.3697,-1.3811,-1.3812,-1.3813,0,0,0,0,0,0,-1.349,-1.3499,-1.3575,-1.3542,-1.3552,-1.3574,-1.3594,-1.3597,-1.3611,-1.3636,-1.364,-1.3618,-1.3661,-1.3669,-1.3707,-1.3725,-1.3697,-1.37,-1.3809,-1.3811,-1.3813,-1.3821,0,0,0,0,0,0,-1.3487,-1.3498,-1.3513,-1.3542,-1.3553,-1.3608,-1.3595,-1.3599,-1.3616,-1.3616,-1.3646,-1.365,-1.3661,-1.3702,-1.3711,-1.3729,-1.3702,-1.3808,-1.381,-1.3812,-1.3819,-1.3823,-1.3826,0,0,0,0,0,-1.3483,-1.3513,-1.3514,-1.3523,-1.3572,-1.3609,-1.3615,-1.3626,-1.3618,-1.3633,-1.3649,-1.3649,-1.3722,-1.3706,-1.3715,-1.3735,-1.3807,-1.381,-1.3812,-1.3818,-1.3822,-1.3826,0,0,0,0,0,0,-1.3485,-1.3517,-1.3518,-1.3558,-1.358,-1.3609,-1.3628,-1.3631,-1.3657,-1.3655,-1.3669,-1.3675,-1.3714,-1.3728,-1.3711,-1.3776,-1.3763,-1.3768,-1.3764,-1.3769,-1.3772,-1.3767,-1.3705,0,0,0,0,0,-1.349,-1.3517,-1.3543,-1.3576,-1.3587,-1.3606,-1.3622,-1.3629,-1.3653,-1.3663,-1.3682,-1.3706,-1.3734,-1.3752,-1.378,-1.3822,-1.3829,-1.384,-1.3843,-1.3845,-1.3849,-1.3873,-1.3878,-1.3822,-1.3822,-1.3822,0,0,-1.3501,-1.3522,-1.3537,-1.3577,-1.3595,-1.3622,-1.3614,-1.3643,-1.3664,-1.3668,-1.3705,-1.372,-1.3748,-1.3788,-1.3807,-1.3801,-1.3866,-1.3849,-1.385,-1.3853,-1.3876,-1.3881,-1.3886,-1.3824,-1.3823,-1.3823,0,0,-1.3534,-1.3552,-1.3582,-1.36,-1.3628,-1.3641,-1.3648,-1.3677,-1.3687,-1.3724,-1.3728,-1.3753,-1.3801,-1.3821,-1.3837,-1.3879,-1.3881,-1.3888,-1.3905,-1.3928,-1.3932,-1.3936,-1.3951,-1.3957,-1.3892,-1.3892,-1.3892,0,-1.3544,-1.3585,-1.3597,-1.3626,-1.3643,-1.3648,-1.3678,-1.3696,-1.3732,-1.3744,-1.3738,-1.3798,-1.3817,-1.3863,-1.3873,-1.3886,-1.3895,-1.3884,-1.3931,-1.3935,-1.3939,-1.3953,-1.3959,-1.3892,-1.3892,-1.3892,-1.3892,0,-1.3596,-1.3624,-1.3645,-1.3678,-1.3698,-1.3728,-1.3745,-1.3764,-1.377,-1.3783,-1.3822,-1.3845,-1.3877,-1.3889,-1.3895,-1.3936,-1.3931,-1.3928,-1.3916,-1.3944,-1.3958,-1.3964,-1.3893,-1.3893,-1.3893,-1.3893,0,0,-1.3631,-1.3671,-1.3679,-1.3694,-1.3726,-1.3749,-1.3779,-1.381,-1.3826,-1.3851,-1.3878,-1.3919,-1.3916,-1.3934,-1.3943,-1.3963,-1.3995,-1.3957,-1.3958,-1.3963,-1.4042,-1.4044,-1.4051,-1.3997,-1.3998,-1.3999,-1.404,0,-1.3667,-1.3721,-1.3733,-1.3779,-1.3806,-1.3811,-1.3838,-1.386,-1.3874,-1.39,-1.3915,-1.3944,-1.3938,-1.3949,-1.397,-1.3987,-1.4011,-1.3984,-1.4021,-1.4023,-1.4014,-1.4058,-1.406,-1.4098,-1.4045,-1.4046,-1.4047,0,-1.3717,-1.3743,-1.3791,-1.382,-1.3832,-1.3855,-1.3885,-1.3909,-1.3936,-1.3945,-1.3966,-1.3972,-1.4005,-1.3992,-1.4038,-1.4019,-1.4035,-1.4046,-1.4048,-1.4051,-1.4036,-1.4062,-1.411,-1.4115,-1.4056,-1.4055,-1.4054,0,-1.3737,-1.3784,-1.382,-1.3833,-1.3867,-1.3884,-1.3899,-1.3925,-1.3943,-1.397,-1.3982,-1.4012,-1.4029,-1.4053,-1.4068,-1.4057,-1.4112,-1.41,-1.4121,-1.412,-1.4131,-1.413,-1.4182,-1.4143,-1.4143,-1.4142,-1.4142,0,-1.3777,-1.3806,-1.3829,-1.3851,-1.3885,-1.3899,-1.3932,-1.3947,-1.397,-1.3996,-1.4003,-1.4027,-1.4045,-1.4072,-1.4084,-1.412,-1.4127,-1.4136,-1.4138,-1.4135,-1.4134,-1.4145,-1.4143,-1.4144,-1.4144,-1.4143,-1.4143,0,-1.3805,-1.3822,-1.386,-1.389,-1.3898,-1.3922,-1.3948,-1.3969,-1.3984,-1.4016,-1.4024,-1.4047,-1.4079,-1.4096,-1.4136,-1.4144,-1.4185,-1.4186,-1.4176,-1.4177,-1.4196,-1.4194,-1.4257,-1.4266,-1.422,-1.4221,-1.4221,0,-1.3829,-1.3852,-1.3884,-1.3901,-1.3917,-1.3944,-1.3963,-1.3978,-1.3998,-1.403,-1.4048,-1.408,-1.4107,-1.4158,-1.4178,-1.4209,-1.4211,-1.4231,-1.4216,-1.4212,-1.4212,-1.421,-1.4212,-1.4234,-1.4234,-1.4234,-1.4235,0,-1.387,-1.3877,-1.3903,-1.3933,-1.3955,-1.3979,-1.4003,-1.4017,-1.4036,-1.4058,-1.409,-1.4111,-1.4152,-1.4184,-1.4217,-1.4233,-1.4238,-1.4239,-1.4246,-1.4242,-1.4235,-1.4239,-1.4182,-1.4238,-1.4237,-1.4237,-1.4237,-1.4237,-1.3896,-1.3917,-1.3943,-1.3972,-1.3992,-1.4014,-1.4036,-1.4054,-1.4081,-1.4115,-1.4123,-1.4157,-1.4184,-1.4228,-1.4246,-1.4273,-1.427,-1.4279,-1.4281,-1.4283,-1.4284,-1.4231,-1.428,-1.4279,-1.4279,-1.4279,-1.4279,0,-1.3937,-1.3954,-1.3981,-1.4014,-1.4038,-1.4039,-1.4066,-1.4086,-1.4116,-1.414,-1.4166,-1.4204,-1.4236,-1.4259,-1.4291,-1.4309,-1.4312,-1.4317,-1.4316,-1.4319,-1.4285,-1.4276,-1.4314,-1.4314,-1.4314,-1.4314,-1.4314,-1.4314,-1.3961,-1.3996,-1.4007,-1.4052,-1.4069,-1.4102,-1.4118,-1.4139,-1.4159,-1.42,-1.4226,-1.4241,-1.4265,-1.43,-1.4329,-1.4335,-1.4347,-1.4352,-1.4358,-1.4326,-1.4322,-1.4318,-1.431,-1.4354,-1.4354,-1.439,-1.439,-1.439]},{"header":{"parameterUnit":"m.s-1","parameterCategory":1,"la1":30.2991,"la2":30.254,"lo1":-89.0895,"lo2":-89.0444,"dy":0.0017,"dx":0.0017,"nx":28,"ny":28,"refTime":"2025-03-22T21:00:00:Z","depth":0,"parameterNumber":3,"parameterNumberName":"V-component_of_WINDS"},"data":[0,0,0,0,0,0,0,0,0,0,0,0,0,0,0,0,0,0,0,0,0,0,0,0,0,0,0,0,0,0,0,0,0,0,0,0,0,0,0,0,0,0,0,0,0,0,0,0,0,0,0,0,0,0,0,0,0,0,4.0062,4.0062,0,4.0076,4.0076,4.0076,4.012,4.0121,4.0122,4.0122,4.0133,4.0133,4.0132,0,0,0,0,0,0,0,0,0,0,0,0,0,4.0073,4.0073,4.0062,4.0062,4.0063,4.0076,4.0076,4.0076,4.0119,4.0121,4.0122,4.0123,4.0134,4.0133,4.0132,0,0,0,0,0,0,0,0,0,0,0,0,0,4.0076,4.0073,4.0062,4.0086,4.0088,4.0076,4.0076,4.0076,4.0119,4.0121,4.0122,4.0123,4.0134,4.0133,4.0132,4.0097,0,0,4.0129,4.0129,0,0,0,0,0,0,0,0,4.0075,4.0075,4.0082,4.0084,4.0087,4.0098,4.0084,4.0083,4.0119,4.0107,4.0122,4.0124,4.012,4.012,4.012,4.0098,4.0098,4.0129,4.0129,4.0128,4.0128,0,0,0,0,0,0,0,4.0075,4.0075,4.0068,4.0082,4.0085,4.0096,4.0098,4.0084,4.0105,4.0108,4.0112,4.0113,4.0122,4.012,4.012,4.0098,4.0129,4.0128,4.0128,4.0127,4.0053,4.0051,0,0,0,0,0,0,4.0072,4.0074,4.0067,4.0068,4.0085,4.0094,4.0096,4.0093,4.0106,4.0109,4.0112,4.0115,4.0121,4.0121,4.0121,4.0083,4.0128,4.0127,4.0127,4.0054,4.0052,4.0051,0,0,0,0,0,0,4.0072,4.0071,4.0067,4.0072,4.0072,4.0093,4.0088,4.0092,4.0091,4.0108,4.0112,4.0106,4.0122,4.0122,4.0104,4.0084,4.0127,4.0126,4.0056,4.0054,4.0052,4.0006,0,0,0,0,0,0,4.0072,4.0071,4.0057,4.0072,4.0072,4.0049,4.0087,4.0091,4.009,4.0094,4.0104,4.0107,4.0124,4.0105,4.0103,4.0084,4.0125,4.0058,4.0055,4.0052,4.001,4.0003,3.9997,0,0,0,0,0,4.0072,4.0042,4.0056,4.0055,4.0056,4.0048,4.0048,4.0068,4.0088,4.0075,4.0087,4.0107,4.0087,4.0103,4.0101,4.0081,4.0059,4.0056,4.0052,4.0012,4.0004,3.9997,0,0,0,0,0,0,4.0023,4.0045,4.006,4.0034,4.0039,4.0055,4.0039,4.0058,4.0057,4.0061,4.0085,4.0087,4.0066,4.0072,4.0089,4.005,4.0077,4.0073,4.0047,4.0039,4.0033,4.0032,4.0125,0,0,0,0,0,4.001,4.0002,4.0021,3.9996,3.9998,4.0018,4.0015,4.0031,4.0037,4.0039,4.0049,4.0053,4.0048,4.0044,4.004,4.0011,4.0015,3.9997,3.9991,3.9986,3.9982,3.997,3.9963,4.004,4.004,4.004,0,0,3.998,3.9992,3.9985,3.9987,3.9992,3.9984,4.002,4.0008,4.0003,4.0037,4.0021,4.0029,4.0035,4.0013,4.0003,4.0017,3.9962,3.9981,3.9977,3.9976,3.9966,3.9959,3.9952,4.0038,4.0038,4.0039,0,0,3.9924,3.9931,3.9913,3.9919,3.9928,3.9942,3.9938,3.9952,3.9959,3.9944,3.9971,3.9965,3.9955,3.9959,3.996,3.9911,3.993,3.9909,3.9876,3.9864,3.9858,3.9853,3.9837,3.983,3.9905,3.9905,3.9905,0,3.9887,3.9876,3.99,3.9889,3.989,3.9923,3.9905,3.9909,3.9916,3.9916,3.9932,3.9923,3.9929,3.991,3.9898,3.9897,3.9894,3.9907,3.9857,3.9852,3.9847,3.9832,3.9826,3.9902,3.9903,3.9903,3.9903,0,3.983,3.9823,3.9807,3.9815,3.9815,3.98,3.9823,3.9819,3.9836,3.9849,3.9835,3.9845,3.9845,3.9841,3.9856,3.9825,3.9833,3.9853,3.988,3.9837,3.9824,3.9818,3.9899,3.99,3.99,3.9901,0,0,3.974,3.9766,3.976,3.9766,3.978,3.9775,3.9762,3.9765,3.9762,3.9766,3.9758,3.9751,3.977,3.9771,3.9788,3.9777,3.974,3.9798,3.9799,3.9788,3.9709,3.9695,3.9688,3.9754,3.9753,3.9752,3.9709,0,3.9688,3.967,3.9693,3.9669,3.9664,3.9697,3.9687,3.9695,3.9708,3.9706,3.9719,3.9715,3.974,3.9741,3.9733,3.9747,3.9725,3.975,3.9747,3.9746,3.9744,3.968,3.9664,3.9623,3.9704,3.9703,3.9702,0,3.9624,3.9628,3.9605,3.9624,3.9623,3.9613,3.9619,3.9616,3.9627,3.9637,3.9641,3.9662,3.9653,3.968,3.9668,3.9685,3.9686,3.9693,3.9692,3.9692,3.9721,3.968,3.961,3.9604,3.9694,3.9694,3.9695,0,3.9563,3.9563,3.9549,3.9553,3.9575,3.9568,3.9577,3.9589,3.959,3.9595,3.9597,3.96,3.9602,3.9604,3.9626,3.9644,3.9613,3.9641,3.9622,3.9621,3.9613,3.9613,3.9543,3.9613,3.9613,3.9613,3.9613,0,3.9502,3.9486,3.9523,3.9514,3.9499,3.9527,3.9511,3.9523,3.9535,3.953,3.9559,3.9554,3.9583,3.9582,3.9599,3.9588,3.9588,3.9597,3.9602,3.9595,3.9594,3.9595,3.9599,3.9611,3.9612,3.9612,3.9612,0,3.943,3.9454,3.9442,3.9465,3.9471,3.9459,3.9479,3.9473,3.9489,3.9483,3.9483,3.9508,3.9508,3.9531,3.9535,3.9547,3.953,3.9539,3.9526,3.953,3.951,3.9512,3.9438,3.9431,3.9504,3.9503,3.9502,0,3.939,3.938,3.9403,3.9403,3.9411,3.941,3.9412,3.944,3.9441,3.9455,3.9448,3.9451,3.9455,3.9454,3.9473,3.9477,3.9488,3.9462,3.9488,3.9483,3.9489,3.949,3.949,3.9456,3.9455,3.9454,3.9454,0,3.9317,3.9331,3.9333,3.934,3.9343,3.935,3.9358,3.9356,3.9387,3.9388,3.9389,3.9393,3.9399,3.9402,3.9411,3.942,3.9443,3.9446,3.9442,3.9434,3.9428,3.9433,3.9512,3.9447,3.9447,3.9448,3.9448,3.9449,3.9261,3.9255,3.9271,3.9274,3.9284,3.9292,3.9289,3.9306,3.9308,3.9316,3.9333,3.9333,3.9348,3.9362,3.937,3.9371,3.9384,3.9377,3.9376,3.9374,3.9371,3.9428,3.9372,3.9372,3.9373,3.9373,3.9373,0,3.9191,3.9204,3.9207,3.9219,3.9222,3.9245,3.9256,3.9257,3.9257,3.9269,3.9274,3.9277,3.9282,3.9302,3.9309,3.9306,3.9317,3.9307,3.9308,3.931,3.9358,3.9362,3.9299,3.9299,3.9299,3.9299,3.9299,3.9299,3.9155,3.9146,3.9162,3.9159,3.9172,3.9173,3.9178,3.9187,3.9197,3.92,3.9205,3.9219,3.9235,3.9244,3.925,3.9256,3.9258,3.9245,3.9255,3.9299,3.9306,3.9313,3.9317,3.9245,3.9245,3.9207,3.9207,3.9206]}]]